Location: Cornospital
(48.0620°N, 3.3837°W)
Time: 20:57:42
(UTC+00:00)

Meteor 2-11 Rocket - Pass Details

Date: 17 June 2021
Orbit: 938 x 958 km, 82.5° (Epoch: 02 August)

Event Time Altitude Azimuth Distance (km) Brightness Sun altitude
Rises 21:36:25 0° 350° (N) 3,636 8.8 -10.2°
Reaches altitude 10° 21:38:55 10° 351° (N) 2,684 7.9 -10.5°
Maximum altitude 21:45:05 84° 80° (E) 958 4.5 -11.1°
Enters shadow 21:50:41 12° 169° (S) 2,476 6.1 -11.6°
